Total_Precipitation_Accumulation
1.85 1.74 2.54 3.82 4.02 3.39 2.92 2.41 1.77 1.44 1.02 0.84 0.79 0.92 1.20 1.54 1.82 2.11 2.35 2.27 1.53 1.24 1.20 1.75 2.46 2.40 2.21 2.20 2.18 2.08 2.01 1.98 1.80 1.66 1.48 1.34 1.19 1.13 1.11 1.13 1.13 1.08 0.97 0.97 1.08 1.18 1.25 1.24 1.26
1.45 2.09 3.06 4.23 3.78 3.06 2.83 2.35 1.79 1.24 0.78 0.61 0.54 0.65 0.77 0.73 0.78 1.32 2.26 2.30 1.30 1.01 1.03 1.34 2.02 2.06 2.01 2.01 1.94 1.89 1.74 1.61 1.65 1.66 1.47 1.31 1.19 1.12 1.14 1.18 1.11 1.05 0.97 1.01 1.09 1.19 1.24 1.23 1.23
1.63 2.73 3.66 3.84 3.08 2.86 2.79 2.16 1.48 0.85 0.55 0.49 0.49 0.51 0.60 0.83 0.96 1.46 2.09 1.65 1.02 0.84 1.01 1.48 1.93 1.91 1.91 1.87 1.70 1.69 1.56 1.42 1.41 1.45 1.40 1.38 1.26 1.13 1.10 1.13 1.13 1.11 1.06 1.05 1.06 1.10 1.16 1.22 1.22
1.82 2.94 3.26 3.01 2.72 2.31 1.93 1.58 1.18 0.98 0.64 0.38 0.36 0.47 0.54 0.90 1.18 1.37 1.42 1.13 0.96 0.96 1.00 1.26 1.65 1.70 1.71 1.64 1.57 1.56 1.45 1.42 1.32 1.25 1.28 1.33 1.28 1.19 1.12 1.17 1.13 1.05 1.07 1.12 1.15 1.18 1.22 1.22 1.20
2.35 3.00 2.85 2.48 2.29 1.87 1.40 1.10 0.95 0.96 0.77 0.44 0.32 0.52 0.77 1.15 1.25 1.13 1.01 0.82 0.81 0.87 0.84 1.00 1.48 1.54 1.54 1.50 1.50 1.53 1.45 1.39 1.26 1.19 1.27 1.40 1.33 1.25 1.18 1.20 1.15 1.07 1.04 1.12 1.15 1.20 1.23 1.16 1.17
2.63 2.66 2.65 2.35 2.25 1.84 1.42 1.01 0.81 0.76 0.61 0.42 0.34 0.55 0.87 1.17 1.34 1.18 1.03 1.01 0.96 0.97 0.88 0.95 1.47 1.59 1.47 1.43 1.38 1.45 1.49 1.41 1.28 1.21 1.21 1.25 1.23 1.16 1.15 1.12 1.13 1.09 1.07 1.13 1.13 1.16 1.20 1.09 1.06
2.51 2.47 2.28 1.93 2.07 2.23 1.65 1.02 0.86 0.84 0.67 0.46 0.34 0.59 0.88 1.14 1.14 1.10 1.16 1.22 1.22 1.29 1.21 1.22 1.37 1.41 1.47 1.43 1.36 1.52 1.64 1.51 1.31 1.19 1.15 1.09 1.08 1.05 1.04 1.04 1.10 1.09 1.08 1.10 1.12 1.16 1.21 1.11 1.02
1.99 2.04 1.89 1.89 2.11 2.33 1.55 1.02 0.83 0.77 0.68 0.35 0.30 0.56 0.85 0.84 0.86 1.01 1.15 1.17 1.15 1.24 1.20 1.24 1.35 1.35 1.36 1.39 1.52 1.69 2.00 1.88 1.48 1.22 1.06 1.00 0.93 0.94 1.03 1.00 1.02 1.10 1.16 1.20 1.21 1.25 1.22 1.20 1.10
1.84 2.16 2.28 2.37 2.38 2.09 1.39 1.19 0.93 0.62 0.55 0.40 0.36 0.47 0.55 0.54 0.71 0.83 0.96 0.97 0.96 0.94 0.98 1.08 1.16 1.20 1.28 1.25 1.41 1.75 2.08 2.12 1.74 1.39 1.23 1.02 0.74 0.74 0.92 1.03 1.13 1.23 1.30 1.37 1.44 1.45 1.36 1.26 1.14
1.80 2.13 2.09 1.85 1.53 1.28 1.12 1.04 0.89 0.76 0.76 0.60 0.50 0.48 0.50 0.54 0.75 0.83 0.83 0.87 0.83 0.75 0.70 0.73 0.77 0.88 0.95 0.98 1.23 1.48 1.56 1.76 1.50 1.43 1.30 1.13 1.06 0.99 0.83 0.90 1.19 1.37 1.38 1.40 1.48 1.55 1.32 1.05 0.84
1.59 1.64 1.48 1.36 1.03 0.82 0.82 0.75 0.65 0.67 0.75 0.65 0.62 0.48 0.52 0.58 0.68 0.72 0.69 0.68 0.68 0.67 0.65 0.59 0.58 0.65 0.76 0.88 1.06 1.26 1.42 1.58 1.57 1.51 1.44 1.44 1.40 1.06 0.92 0.99 1.09 1.21 1.23 1.17 1.26 1.26 1.04 0.85 0.78
1.54 1.28 1.16 1.09 0.76 0.74 0.76 0.63 0.55 0.54 0.51 0.39 0.47 0.43 0.47 0.54 0.56 0.55 0.56 0.58 0.56 0.58 0.68 0.63 0.48 0.49 0.56 0.65 0.83 1.01 1.22 1.42 1.45 1.25 1.16 1.29 1.33 1.14 1.01 1.15 1.22 1.26 1.26 1.32 1.35 1.27 1.10 0.87 0.81
1.47 1.40 1.15 1.01 0.77 0.75 0.69 0.63 0.52 0.44 0.40 0.32 0.38 0.49 0.54 0.59 0.57 0.52 0.49 0.53 0.52 0.57 0.65 0.67 0.58 0.51 0.54 0.59 0.67 0.71 0.99 1.17 1.30 1.34 1.12 1.24 1.28 1.23 1.11 1.05 1.22 1.20 1.24 1.28 1.35 1.37 1.25 1.14 1.03
1.35 1.26 1.03 0.94 0.83 0.74 0.68 0.60 0.55 0.45 0.39 0.36 0.42 0.54 0.58 0.61 0.62 0.57 0.51 0.47 0.45 0.53 0.60 0.62 0.64 0.61 0.60 0.59 0.61 0.59 0.66 0.76 0.86 0.82 0.78 0.98 1.11 1.12 1.12 0.99 1.04 1.13 1.27 1.47 1.54 1.40 1.33 1.27 1.21
1.08 1.18 1.25 1.05 0.86 0.69 0.69 0.80 0.60 0.51 0.48 0.46 0.48 0.51 0.57 0.54 0.55 0.53 0.47 0.44 0.43 0.48 0.54 0.57 0.62 0.67 0.69 0.71 0.78 0.71 0.66 0.70 0.70 0.66 0.65 0.77 0.89 0.97 1.07 1.08 1.04 1.07 1.28 1.52 1.68 1.57 1.46 1.32 1.31
1.14 1.33 1.62 1.30 1.08 0.85 0.93 1.08 0.56 0.50 0.55 0.52 0.47 0.46 0.45 0.43 0.45 0.46 0.45 0.43 0.43 0.43 0.42 0.45 0.48 0.54 0.59 0.66 0.73 0.81 0.80 0.81 0.78 0.81 0.77 0.72 0.85 0.98 1.10 1.15 1.09 1.09 1.29 1.53 1.75 1.80 1.76 1.66 1.58
1.29 1.28 1.29 1.25 1.09 0.90 0.88 0.83 0.49 0.47 0.56 0.57 0.49 0.45 0.42 0.33 0.33 0.36 0.36 0.37 0.40 0.40 0.35 0.33 0.34 0.36 0.40 0.46 0.56 0.70 0.78 0.85 0.91 0.93 0.94 0.94 1.00 1.02 1.14 1.30 1.32 1.32 1.43 1.53 1.58 1.70 1.71 1.74 1.74
0.97 0.89 0.92 1.04 0.89 0.86 0.81 0.59 0.43 0.46 0.51 0.53 0.55 0.49 0.43 0.30 0.25 0.24 0.27 0.31 0.33 0.34 0.34 0.34 0.32 0.32 0.30 0.34 0.47 0.60 0.68 0.75 0.92 0.99 1.05 1.32 1.44 1.24 1.20 1.31 1.33 1.39 1.57 1.63 1.74 1.95 1.88 1.77 1.86
0.66 0.62 0.72 0.75 0.64 0.77 0.72 0.53 0.43 0.40 0.38 0.40 0.46 0.46 0.42 0.32 0.21 0.14 0.12 0.17 0.22 0.21 0.20 0.24 0.26 0.32 0.31 0.28 0.35 0.49 0.61 0.73 0.87 1.03 1.08 1.31 1.43 1.34 1.35 1.37 1.37 1.42 1.51 1.55 1.72 2.09 2.11 1.92 1.82
0.62 0.63 0.67 0.65 0.58 0.66 0.72 0.58 0.45 0.36 0.32 0.33 0.35 0.38 0.37 0.28 0.17 0.13 0.10 0.11 0.15 0.19 0.14 0.16 0.18 0.26 0.33 0.36 0.42 0.56 0.75 0.87 0.97 1.12 1.17 1.27 1.30 1.31 1.24 1.40 1.49 1.47 1.60 1.67 1.82 2.11 2.32 2.09 1.90
0.56 0.63 0.59 0.61 0.67 0.61 0.69 0.75 0.57 0.39 0.34 0.34 0.33 0.33 0.31 0.23 0.18 0.15 0.12 0.11 0.10 0.14 0.11 0.14 0.22 0.34 0.51 0.67 0.89 1.15 1.45 1.58 1.49 1.35 1.41 1.50 1.58 1.55 1.49 1.58 1.70 1.62 1.68 1.77 1.81 1.89 2.33 2.46 2.22
0.63 0.43 0.40 0.49 0.71 0.72 0.60 0.79 0.58 0.40 0.39 0.39 0.35 0.30 0.26 0.23 0.20 0.17 0.15 0.13 0.13 0.18 0.24 0.32 0.43 0.58 0.76 0.96 1.19 1.45 1.71 1.89 1.90 1.91 1.94 1.91 1.87 1.77 1.66 1.67 1.72 1.72 1.79 1.77 1.64 1.79 2.21 2.66 2.68
0.51 0.42 0.40 0.46 0.63 0.61 0.55 0.58 0.51 0.42 0.48 0.49 0.46 0.40 0.35 0.33 0.31 0.29 0.27 0.25 0.24 0.35 0.47 0.57 0.78 0.94 1.08 1.15 1.25 1.47 1.58 1.66 1.77 1.92 1.97 1.96 1.90 1.78 1.64 1.58 1.65 1.72 1.80 1.79 1.84 2.03 2.32 2.60 2.84
0.42 0.49 0.52 0.57 0.65 0.61 0.42 0.43 0.52 0.44 0.48 0.57 0.54 0.47 0.42 0.38 0.35 0.37 0.40 0.40 0.42 0.64 0.86 0.99 1.09 1.18 1.17 1.16 1.18 1.31 1.45 1.55 1.65 1.81 1.86 1.80 1.68 1.63 1.57 1.54 1.53 1.50 1.57 1.67 1.85 2.10 2.23 2.42 2.65
0.40 0.59 0.71 0.73 0.67 0.48 0.28 0.34 0.44 0.36 0.34 0.41 0.44 0.41 0.37 0.31 0.29 0.34 0.42 0.54 0.73 0.97 1.18 1.31 1.31 1.21 1.07 1.04 1.11 1.17 1.32 1.49 1.55 1.56 1.57 1.56 1.48 1.42 1.42 1.43 1.39 1.31 1.29 1.42 1.62 1.86 1.91 2.02 2.25
0.34 0.43 0.63 0.69 0.57 0.42 0.31 0.45 0.48 0.36 0.26 0.23 0.24 0.26 0.31 0.34 0.40 0.41 0.46 0.64 0.93 1.18 1.42 1.67 1.65 1.41 1.19 1.13 1.19 1.22 1.32 1.40 1.40 1.31 1.32 1.34 1.30 1.24 1.16 1.18 1.20 1.19 1.18 1.22 1.35 1.50 1.54 1.63 1.85
0.31 0.32 0.33 0.50 0.43 0.39 0.34 0.40 0.37 0.26 0.20 0.19 0.22 0.27 0.36 0.41 0.50 0.59 0.69 0.78 0.99 1.21 1.54 1.81 1.86 1.65 1.49 1.40 1.34 1.35 1.27 1.20 1.13 1.04 1.04 1.06 1.09 1.02 0.97 1.02 1.12 1.19 1.13 1.09 1.18 1.30 1.33 1.44 1.60
0.25 0.27 0.30 0.51 0.57 0.52 0.38 0.40 0.33 0.22 0.16 0.18 0.29 0.35 0.42 0.49 0.51 0.66 0.91 1.12 1.36 1.30 1.44 1.68 1.61 1.53 1.49 1.51 1.49 1.39 1.25 1.13 1.08 1.01 1.01 0.97 1.01 0.93 0.92 0.94 0.95 0.97 0.98 1.02 1.16 1.29 1.35 1.37 1.44
0.23 0.25 0.27 0.37 0.40 0.54 0.62 0.53 0.30 0.26 0.26 0.32 0.41 0.44 0.49 0.56 0.59 0.73 0.90 1.05 1.23 1.34 1.35 1.39 1.38 1.38 1.34 1.27 1.22 1.10 0.90 0.79 0.80 0.83 0.81 0.75 0.77 0.73 0.74 0.71 0.74 0.87 0.89 0.89 1.03 1.11 1.12 1.24 1.33
0.26 0.28 0.29 0.46 0.48 0.48 0.69 0.72 0.40 0.39 0.44 0.52 0.59 0.64 0.68 0.68 0.72 0.81 0.89 1.02 1.09 1.10 1.14 1.22 1.15 1.14 1.09 0.99 0.88 0.76 0.62 0.57 0.61 0.64 0.60 0.52 0.53 0.49 0.55 0.58 0.58 0.77 0.94 0.96 1.00 1.01 0.99 1.09 1.18